パンスターズ彗星

C/2014 W9 ( PanSTARRS )

English version
Home page
Updated on June 11, 2016

---------------------------------------------------------------------

・ プロフィール

発見日 2014年11月22日
発見光度 20.5等
発見者 Pan-STARRS 1 telescope (Haleakala)

・ 写真集

・ 軌道要素

Epoch 2015 Feb. 27.0 TT = JDT 2457080.5
T 2015 Feb. 15.70597 TT                                 MPCW
q   1.5874565            (2000.0)            P               Q
n   0.02641721     Peri.  167.76985     -0.98620882     +0.15134842
a  11.1654967      Node    21.28839     -0.16309971     -0.81998588
e   0.8578248      Incl.   10.63058     -0.02811840     -0.55201161
P  37.3
From 110 observations 2014 Oct. 25-2015 June 8, mean residual 0".5.

・ 光度変化

        m1 = 11.0 + 5 logΔ + 25.0 log r

---------------------------------------------------------------------

軌道要素はM.P.E.C. 2015-M77に掲載されたものです。
光度グラフはComet for Windowsで作成したものです。

---------------------------------------------------------------------

Copyright(C) Seiichi Yoshida (comet@aerith.net). All rights reserved.